| time (UTC) | temp F | wind direction | speed MPH | gust MPH | rain 1hr in | rain 24hr in | rain mn in | humidity % | barometer mb |
| 20260901161057 | 90 | 254 | 2.0 | 9.0 | 0.00 | 0.00 | 0.00 | 64 | 1019.1 |
| 20260901160603 | 89 | 317 | 4.0 | 10.0 | 0.00 | 0.00 | 0.00 | 66 | 1019.2 |
| 20260901160104 | 89 | 298 | 4.0 | 11.0 | 0.00 | 0.00 | 0.00 | 64 | 1019.1 |
| 20260901155556 | 88 | 244 | 5.0 | 12.0 | 0.00 | 0.00 | 0.00 | 66 | 1019.1 |
| 20260901155057 | 87 | 283 | 6.0 | 12.0 | 0.00 | 0.00 | 0.00 | 67 | 1019.2 |
| 20260901154620 | 87 | 290 | 5.0 | 12.0 | 0.00 | 0.00 | 0.00 | 67 | 1019.1 |
| 20260901154057 | 87 | 292 | 5.0 | 12.0 | 0.00 | 0.00 | 0.00 | 67 | 1019.0 |
| 20260901153604 | 87 | 289 | 5.0 | 17.0 | 0.00 | 0.00 | 0.00 | 67 | 1019.0 |
| 20260901153109 | 87 | 276 | 5.0 | 17.0 | 0.00 | 0.00 | 0.00 | 67 | 1019.1 |
| 20260901152557 | 87 | 312 | 7.0 | 17.0 | 0.00 | 0.00 | 0.00 | 67 | 1019.0 |
| 20260901152059 | 87 | 265 | 6.0 | 11.0 | 0.00 | 0.00 | 0.00 | 69 | 1019.0 |
| 20260901151601 | 87 | 314 | 6.0 | 12.0 | 0.00 | 0.00 | 0.00 | 69 | 1019.1 |
| 20260901151057 | 86 | 280 | 5.0 | 12.0 | 0.00 | 0.00 | 0.00 | 70 | 1019.1 |
| 20260901150557 | 86 | 267 | 6.0 | 13.0 | 0.00 | 0.00 | 0.00 | 70 | 1018.9 |
| 20260901150121 | 85 | 250 | 5.0 | 13.0 | 0.00 | 0.00 | 0.00 | 72 | 1019.0 |
| 20260901145604 | 85 | 284 | 7.0 | 16.0 | 0.00 | 0.00 | 0.00 | 70 | 1019.1 |
| 20260901145056 | 85 | 255 | 8.0 | 16.0 | 0.00 | 0.00 | 0.00 | 70 | 1019.1 |
| 20260901144606 | 85 | 304 | 6.0 | 16.0 | 0.00 | 0.00 | 0.00 | 71 | 1019.0 |
| 20260901144059 | 85 | 270 | 7.0 | 14.0 | 0.00 | 0.00 | 0.00 | 73 | 1019.1 |
| 20260901143557 | 84 | 284 | 5.0 | 11.0 | 0.00 | 0.00 | 0.00 | 74 | 1019.1 |
| 20260901143108 | 84 | 265 | 5.0 | 14.0 | 0.00 | 0.00 | 0.00 | 72 | 1019.2 |
| 20260901142600 | 84 | 299 | 5.0 | 14.0 | 0.00 | 0.00 | 0.00 | 73 | 1019.2 |
| 20260901142057 | 83 | 324 | 7.0 | 14.0 | 0.00 | 0.00 | 0.00 | 73 | 1019.2 |
| 20260901141605 | 83 | 274 | 9.0 | 14.0 | 0.00 | 0.00 | 0.00 | 73 | 1019.1 |
| 20260901141100 | 83 | 288 | 7.0 | 14.0 | 0.00 | 0.00 | 0.00 | 74 | 1019.1 |
| 20260901140600 | 82 | 254 | 7.0 | 15.0 | 0.00 | 0.00 | 0.00 | 75 | 1019.0 |
| 20260901140104 | 82 | 279 | 7.0 | 15.0 | 0.00 | 0.00 | 0.00 | 75 | 1018.9 |
| 20260901135601 | 82 | 279 | 6.0 | 15.0 | 0.00 | 0.00 | 0.00 | 75 | 1019.1 |
| 20260901135057 | 82 | 274 | 7.0 | 13.0 | 0.00 | 0.00 | 0.00 | 75 | 1019.0 |
| 20260901134604 | 82 | 246 | 6.0 | 12.0 | 0.00 | 0.00 | 0.00 | 76 | 1019.2 |
| 20260901134102 | 81 | 265 | 7.0 | 12.0 | 0.00 | 0.00 | 0.00 | 77 | 1019.1 |
| 20260901133559 | 81 | 256 | 5.0 | 10.0 | 0.00 | 0.00 | 0.00 | 77 | 1019.2 |
| 20260901133102 | 80 | 244 | 6.0 | 11.0 | 0.00 | 0.00 | 0.00 | 78 | 1019.0 |
| 20260901132559 | 80 | 248 | 5.0 | 12.0 | 0.00 | 0.00 | 0.00 | 79 | 1019.1 |
| 20260901132057 | 79 | 231 | 5.0 | 12.0 | 0.00 | 0.00 | 0.00 | 80 | 1019.1 |
| 20260901131602 | 79 | 224 | 6.0 | 12.0 | 0.00 | 0.00 | 0.00 | 80 | 1019.3 |
| 20260901131057 | 79 | 200 | 4.0 | 12.0 | 0.00 | 0.00 | 0.00 | 81 | 1019.2 |
| 20260901130600 | 78 | 271 | 5.0 | 12.0 | 0.00 | 0.00 | 0.00 | 82 | 1019.2 |
| 20260901130105 | 78 | 227 | 4.0 | 11.0 | 0.00 | 0.00 | 0.00 | 82 | 1019.3 |
| 20260901125556 | 77 | 225 | 5.0 | 13.0 | 0.00 | 0.00 | 0.00 | 82 | 1019.4 |
| 20260901125057 | 77 | 241 | 4.0 | 13.0 | 0.00 | 0.00 | 0.00 | 83 | 1019.3 |
| 20260901124604 | 77 | 247 | 5.0 | 11.0 | 0.00 | 0.00 | 0.00 | 83 | 1019.4 |
| 20260901124101 | 76 | 257 | 4.0 | 10.0 | 0.00 | 0.00 | 0.00 | 83 | 1019.4 |
| 20260901123556 | 76 | 221 | 3.0 | 10.0 | 0.00 | 0.00 | 0.00 | 84 | 1019.5 |
| 20260901123105 | 76 | 255 | 1.0 | 8.0 | 0.00 | 0.00 | 0.00 | 85 | 1019.5 |
| 20260901122558 | 76 | 223 | 2.0 | 10.0 | 0.00 | 0.00 | 0.00 | 85 | 1019.5 |
| 20260901122101 | 76 | 257 | 5.0 | 10.0 | 0.00 | 0.00 | 0.00 | 85 | 1019.5 |
| 20260901121613 | 75 | 237 | 2.0 | 10.0 | 0.00 | 0.00 | 0.00 | 85 | 1019.5 |
| 20260901121057 | 75 | 238 | 4.0 | 10.0 | 0.00 | 0.00 | 0.00 | 85 | 1019.4 |
| 20260901120557 | 75 | 258 | 4.0 | 9.0 | 0.00 | 0.00 | 0.00 | 86 | 1019.3 |
| 20260901120115 | 75 | 229 | 3.0 | 8.0 | 0.00 | 0.00 | 0.00 | 86 | 1019.2 |
| 20260901115557 | 74 | 232 | 2.0 | 7.0 | 0.00 | 0.00 | 0.00 | 86 | 1019.0 |
| 20260901115100 | 74 | 240 | 2.0 | 7.0 | 0.00 | 0.00 | 0.00 | 86 | 1018.9 |
| 20260901114612 | 74 | 224 | 2.0 | 8.0 | 0.00 | 0.00 | 0.00 | 86 | 1019.0 |
| 20260901114059 | 74 | 229 | 2.0 | 8.0 | 0.00 | 0.00 | 0.00 | 86 | 1018.9 |
| 20260901113559 | 74 | 238 | 2.0 | 8.0 | 0.00 | 0.00 | 0.00 | 86 | 1018.8 |
| 20260901113104 | 74 | 241 | 1.0 | 7.0 | 0.00 | 0.00 | 0.00 | 87 | 1018.8 |
| 20260901112556 | 74 | 265 | 2.0 | 7.0 | 0.00 | 0.00 | 0.00 | 87 | 1018.7 |
| 20260901112057 | 74 | 238 | 2.0 | 7.0 | 0.00 | 0.00 | 0.00 | 87 | 1018.7 |
| 20260901111614 | 74 | 244 | 2.0 | 7.0 | 0.00 | 0.00 | 0.00 | 87 | 1018.7 |
| 20260901111057 | 74 | 0 | 1.0 | 6.0 | 0.00 | 0.00 | 0.00 | 87 | 1018.6 |
| 20260901110600 | 74 | 254 | 2.0 | 6.0 | 0.00 | 0.00 | 0.00 | 87 | 1018.7 |
| 20260901110107 | 74 | 244 | 3.0 | 6.0 | 0.00 | 0.00 | 0.00 | 87 | 1018.6 |
| 20260901105600 | 74 | 250 | 2.0 | 5.0 | 0.00 | 0.00 | 0.00 | 87 | 1018.6 |
| 20260901105057 | 74 | 252 | 2.0 | 5.0 | 0.00 | 0.00 | 0.00 | 87 | 1018.6 |
| 20260901104603 | 74 | 246 | 2.0 | 5.0 | 0.00 | 0.00 | 0.00 | 87 | 1018.5 |
| 20260901104057 | 73 | 214 | 2.0 | 6.0 | 0.00 | 0.00 | 0.00 | 87 | 1018.5 |
| 20260901103557 | 73 | 228 | 2.0 | 6.0 | 0.00 | 0.00 | 0.00 | 87 | 1018.3 |
| 20260901103107 | 73 | 232 | 1.0 | 6.0 | 0.00 | 0.00 | 0.00 | 87 | 1018.4 |
| 20260901102557 | 73 | 237 | 2.0 | 5.0 | 0.00 | 0.00 | 0.00 | 88 | 1018.5 |
| 20260901102057 | 73 | 248 | 0.0 | 4.0 | 0.00 | 0.00 | 0.00 | 88 | 1018.4 |
| 20260901101601 | 73 | 226 | 0.0 | 4.0 | 0.00 | 0.00 | 0.00 | 88 | 1018.4 |
| 20260901101058 | 73 | 219 | 1.0 | 6.0 | 0.00 | 0.00 | 0.00 | 88 | 1018.4 |
| 20260901100557 | 73 | 234 | 2.0 | 6.0 | 0.00 | 0.00 | 0.00 | 88 | 1018.4 |
| 20260901100109 | 73 | 230 | 1.0 | 4.0 | 0.00 | 0.00 | 0.00 | 88 | 1018.3 |
| 20260901095559 | 73 | 236 | 1.0 | 4.0 | 0.00 | 0.00 | 0.00 | 88 | 1018.2 |
| 20260901095057 | 73 | 227 | 1.0 | 5.0 | 0.00 | 0.00 | 0.00 | 88 | 1018.3 |
| 20260901094604 | 73 | 241 | 0.0 | 5.0 | 0.00 | 0.00 | 0.00 | 87 | 1018.2 |
| 20260901094056 | 73 | 234 | 1.0 | 4.0 | 0.00 | 0.00 | 0.00 | 87 | 1018.1 |
| 20260901093556 | 73 | 221 | 1.0 | 4.0 | 0.00 | 0.00 | 0.00 | 87 | 1018.2 |
| 20260901093108 | 73 | 0 | 1.0 | 4.0 | 0.00 | 0.00 | 0.00 | 87 | 1018.1 |
| 20260901092557 | 73 | 225 | 1.0 | 4.0 | 0.00 | 0.00 | 0.00 | 87 | 1018.0 |
| 20260901092057 | 73 | 230 | 1.0 | 4.0 | 0.00 | 0.00 | 0.00 | 87 | 1017.9 |
| 20260901091621 | 74 | 0 | 1.0 | 4.0 | 0.00 | 0.00 | 0.00 | 87 | 1018.0 |
| 20260901091101 | 74 | 0 | 0.0 | 0.0 | 0.00 | 0.00 | 0.00 | 87 | 1017.9 |
| 20260901090557 | 74 | 0 | 0.0 | 4.0 | 0.00 | 0.00 | 0.00 | 86 | 1018.0 |
| 20260901090107 | 74 | 0 | 1.0 | 4.0 | 0.00 | 0.00 | 0.00 | 86 | 1017.8 |
| 20260901085559 | 74 | 246 | 0.0 | 6.0 | 0.00 | 0.00 | 0.00 | 86 | 1017.8 |
| 20260901085057 | 74 | 247 | 1.0 | 6.0 | 0.00 | 0.00 | 0.00 | 86 | 1017.9 |
| 20260901084609 | 74 | 254 | 1.0 | 5.0 | 0.00 | 0.00 | 0.00 | 86 | 1017.8 |
| 20260901084057 | 74 | 0 | 1.0 | 5.0 | 0.00 | 0.00 | 0.00 | 86 | 1017.8 |
| 20260901083557 | 74 | 234 | 2.0 | 6.0 | 0.00 | 0.00 | 0.00 | 86 | 1017.7 |
| 20260901083108 | 74 | 224 | 1.0 | 8.0 | 0.00 | 0.00 | 0.00 | 86 | 1017.7 |
| 20260901082556 | 74 | 210 | 2.0 | 8.0 | 0.00 | 0.00 | 0.00 | 86 | 1017.7 |
| 20260901082057 | 74 | 216 | 3.0 | 9.0 | 0.00 | 0.00 | 0.00 | 86 | 1017.6 |
| 20260901081608 | 75 | 228 | 3.0 | 9.0 | 0.00 | 0.00 | 0.00 | 85 | 1017.6 |
| 20260901081057 | 75 | 223 | 2.0 | 7.0 | 0.00 | 0.00 | 0.00 | 85 | 1017.6 |
| 20260901080556 | 75 | 226 | 2.0 | 7.0 | 0.00 | 0.00 | 0.00 | 85 | 1017.5 |
| 20260901080108 | 75 | 236 | 2.0 | 7.0 | 0.00 | 0.00 | 0.00 | 85 | 1017.6 |
| 20260901075557 | 75 | 250 | 2.0 | 7.0 | 0.00 | 0.00 | 0.00 | 85 | 1017.5 |
| 20260901075057 | 75 | 233 | 2.0 | 6.0 | 0.00 | 0.00 | 0.00 | 85 | 1017.6 |
| 20260901074605 | 75 | 208 | 2.0 | 5.0 | 0.00 | 0.00 | 0.00 | 85 | 1017.5 |
| 20260901074056 | 75 | 194 | 1.0 | 6.0 | 0.00 | 0.00 | 0.00 | 85 | 1017.5 |
| 20260901073556 | 75 | 221 | 2.0 | 6.0 | 0.00 | 0.00 | 0.00 | 85 | 1017.7 |
| 20260901073108 | 75 | 211 | 2.0 | 6.0 | 0.00 | 0.00 | 0.00 | 85 | 1017.5 |
| 20260901072556 | 75 | 220 | 2.0 | 6.0 | 0.00 | 0.00 | 0.00 | 85 | 1017.6 |
| 20260901072057 | 75 | 231 | 2.0 | 6.0 | 0.00 | 0.00 | 0.00 | 85 | 1017.8 |
| 20260901071607 | 75 | 213 | 2.0 | 6.0 | 0.00 | 0.00 | 0.00 | 85 | 1017.9 |
| 20260901071056 | 75 | 229 | 3.0 | 6.0 | 0.00 | 0.00 | 0.00 | 85 | 1017.8 |
| 20260901070556 | 75 | 213 | 2.0 | 7.0 | 0.00 | 0.00 | 0.00 | 85 | 1017.8 |
| 20260901070109 | 75 | 227 | 2.0 | 7.0 | 0.00 | 0.00 | 0.00 | 85 | 1017.8 |
| 20260901065600 | 75 | 225 | 2.0 | 6.0 | 0.00 | 0.00 | 0.00 | 85 | 1017.8 |
| 20260901065057 | 75 | 0 | 2.0 | 5.0 | 0.00 | 0.00 | 0.00 | 85 | 1017.8 |
| 20260901064614 | 75 | 0 | 1.0 | 4.0 | 0.00 | 0.00 | 0.00 | 85 | 1017.8 |
| 20260901064057 | 75 | 235 | 1.0 | 4.0 | 0.00 | 0.00 | 0.00 | 85 | 1017.9 |
| 20260901063556 | 75 | 0 | 0.0 | 2.0 | 0.00 | 0.00 | 0.00 | 85 | 1017.9 |
| 20260901063107 | 75 | 240 | 0.0 | 2.0 | 0.00 | 0.00 | 0.00 | 85 | 1017.9 |
| 20260901062557 | 75 | 0 | 0.0 | 0.0 | 0.00 | 0.00 | 0.00 | 85 | 1017.9 |
| 20260901062100 | 75 | 0 | 0.0 | 1.0 | 0.00 | 0.00 | 0.00 | 85 | 1018.0 |
| 20260901061605 | 75 | 0 | 0.0 | 1.0 | 0.00 | 0.00 | 0.00 | 84 | 1018.0 |
| 20260901061057 | 76 | 0 | 0.0 | 1.0 | 0.00 | 0.00 | 0.00 | 84 | 1017.9 |
| 20260901060558 | 76 | 0 | 0.0 | 0.0 | 0.00 | 0.00 | 0.00 | 84 | 1017.7 |
| 20260901060105 | 76 | 0 | 0.0 | 3.0 | 0.00 | 0.00 | 0.00 | 84 | 1017.9 |
| 20260901055557 | 76 | 0 | 0.0 | 3.0 | 0.00 | 0.00 | 0.00 | 84 | 1017.8 |
| 20260901055057 | 76 | 0 | 0.0 | 4.0 | 0.00 | 0.00 | 0.00 | 83 | 1017.8 |
| 20260901054604 | 76 | 0 | 0.0 | 5.0 | 0.00 | 0.00 | 0.00 | 83 | 1017.8 |
| 20260901054059 | 76 | 0 | 2.0 | 5.0 | 0.00 | 0.00 | 0.00 | 83 | 1017.9 |
| 20260901053600 | 76 | 227 | 1.0 | 7.0 | 0.00 | 0.00 | 0.00 | 83 | 1018.0 |
| 20260901053109 | 76 | 0 | 0.0 | 7.0 | 0.00 | 0.00 | 0.00 | 83 | 1018.0 |
| 20260901052558 | 76 | 268 | 1.0 | 9.0 | 0.00 | 0.00 | 0.00 | 83 | 1018.0 |
| 20260901052056 | 76 | 224 | 2.0 | 9.0 | 0.00 | 0.00 | 0.00 | 83 | 1017.7 |
| 20260901051604 | 76 | 217 | 3.0 | 9.0 | 0.00 | 0.00 | 0.00 | 83 | 1017.5 |
| 20260901051057 | 76 | 229 | 3.0 | 8.0 | 0.00 | 0.00 | 0.00 | 83 | 1017.4 |
| 20260901050557 | 76 | 243 | 2.0 | 7.0 | 0.00 | 0.00 | 0.00 | 83 | 1017.5 |
| 20260901050105 | 76 | 238 | 2.0 | 8.0 | 0.00 | 0.00 | 0.00 | 83 | 1017.6 |
| 20260901045557 | 77 | 227 | 4.0 | 8.0 | 0.00 | 0.00 | 0.00 | 83 | 1017.6 |
| 20260901045056 | 77 | 0 | 2.0 | 5.0 | 0.00 | 0.00 | 0.00 | 83 | 1017.7 |
| 20260901044606 | 77 | 254 | 1.0 | 9.0 | 0.00 | 0.00 | 0.00 | 82 | 1017.7 |
| 20260901044057 | 77 | 234 | 1.0 | 9.0 | 0.00 | 0.00 | 0.00 | 82 | 1017.8 |
| 20260901043600 | 77 | 241 | 1.0 | 7.0 | 0.00 | 0.00 | 0.00 | 82 | 1017.7 |
| 20260901043106 | 77 | 222 | 2.0 | 9.0 | 0.00 | 0.00 | 0.00 | 83 | 1017.7 |
| 20260901042557 | 77 | 214 | 3.0 | 9.0 | 0.00 | 0.00 | 0.00 | 83 | 1017.6 |
| 20260901042057 | 77 | 214 | 2.0 | 6.0 | 0.00 | 0.00 | 0.00 | 83 | 1017.6 |
| 20260901041604 | 77 | 224 | 2.0 | 6.0 | 0.00 | 0.00 | 0.00 | 84 | 1017.7 |
| 20260901041057 | 77 | 239 | 0.0 | 5.0 | 0.00 | 0.00 | 0.00 | 84 | 1017.8 |
| 20260901040557 | 77 | 227 | 2.0 | 7.0 | 0.00 | 0.00 | 0.00 | 85 | 1017.7 |
| 20260901040106 | 76 | 224 | 2.0 | 7.0 | 0.00 | 0.00 | 0.00 | 86 | 1017.7 |
| 20260901035557 | 76 | 235 | 1.0 | 7.0 | 0.00 | 0.00 | 0.00 | 86 | 1017.7 |
| 20260901035056 | 76 | 221 | 2.0 | 7.0 | 0.00 | 0.00 | 0.00 | 87 | 1017.7 |
| 20260901034605 | 76 | 202 | 2.0 | 6.0 | 0.00 | 0.00 | 0.00 | 87 | 1017.5 |
| 20260901034056 | 76 | 227 | 2.0 | 7.0 | 0.00 | 0.00 | 0.00 | 87 | 1017.9 |
| 20260901033557 | 76 | 201 | 2.0 | 7.0 | 0.00 | 0.00 | 0.00 | 87 | 1018.0 |
| 20260901033104 | 76 | 198 | 1.0 | 5.0 | 0.00 | 0.00 | 0.00 | 87 | 1018.1 |
| 20260901032557 | 77 | 0 | 1.0 | 5.0 | 0.00 | 0.00 | 0.00 | 86 | 1018.1 |
| 20260901032056 | 77 | 205 | 1.0 | 4.0 | 0.00 | 0.00 | 0.00 | 86 | 1018.2 |
| 20260901031604 | 77 | 209 | 1.0 | 4.0 | 0.00 | 0.00 | 0.00 | 86 | 1018.3 |
| 20260901031057 | 77 | 205 | 0.0 | 3.0 | 0.00 | 0.00 | 0.00 | 86 | 1018.3 |
| 20260901030557 | 77 | 0 | 0.0 | 3.0 | 0.00 | 0.00 | 0.00 | 86 | 1018.5 |
| 20260901030104 | 77 | 197 | 0.0 | 3.0 | 0.00 | 0.00 | 0.00 | 86 | 1018.5 |
| 20260901025557 | 77 | 0 | 0.0 | 3.0 | 0.00 | 0.00 | 0.00 | 86 | 1018.4 |
| 20260901025057 | 77 | 201 | 0.0 | 3.0 | 0.00 | 0.00 | 0.00 | 86 | 1018.5 |
| 20260901024611 | 77 | 0 | 0.0 | 1.0 | 0.00 | 0.00 | 0.00 | 86 | 1018.5 |
| 20260901024057 | 77 | 0 | 0.0 | 1.0 | 0.00 | 0.00 | 0.00 | 86 | 1018.6 |
| 20260901023557 | 77 | 0 | 0.0 | 1.0 | 0.00 | 0.00 | 0.00 | 86 | 1018.6 |
| 20260901023109 | 77 | 0 | 0.0 | 2.0 | 0.00 | 0.00 | 0.00 | 86 | 1018.5 |
| 20260901022557 | 77 | 230 | 0.0 | 2.0 | 0.00 | 0.00 | 0.00 | 86 | 1018.5 |
| 20260901022057 | 77 | 0 | 0.0 | 3.0 | 0.00 | 0.00 | 0.00 | 86 | 1018.6 |
| 20260901021604 | 77 | 0 | 0.0 | 3.0 | 0.00 | 0.00 | 0.00 | 86 | 1018.8 |
| 20260901021056 | 77 | 0 | 0.0 | 0.0 | 0.00 | 0.00 | 0.00 | 86 | 1018.7 |
| 20260901020557 | 77 | 0 | 0.0 | 0.0 | 0.00 | 0.00 | 0.00 | 86 | 1018.9 |
| 20260901020100 | 77 | 0 | 0.0 | 0.0 | 0.00 | 0.00 | 0.00 | 85 | 1019.0 |
| 20260901015559 | 78 | 0 | 0.0 | 0.0 | 0.00 | 0.00 | 0.00 | 85 | 1018.9 |
| 20260901015057 | 78 | 0 | 0.0 | 0.0 | 0.00 | 0.00 | 0.00 | 85 | 1018.9 |
| 20260901014606 | 78 | 0 | 0.0 | 0.0 | 0.00 | 0.00 | 0.00 | 85 | 1019.0 |
| 20260901014057 | 78 | 0 | 0.0 | 0.0 | 0.00 | 0.00 | 0.00 | 85 | 1019.2 |
| 20260901013557 | 78 | 0 | 0.0 | 0.0 | 0.00 | 0.00 | 0.00 | 84 | 1019.0 |
| 20260901013123 | 78 | 0 | 0.0 | 0.0 | 0.00 | 0.00 | 0.00 | 84 | 1019.0 |
| 20260901012618 | 79 | 0 | 0.0 | 0.0 | 0.00 | 0.00 | 0.00 | 84 | 1018.9 |
| 20260901012057 | 79 | 0 | 0.0 | 0.0 | 0.00 | 0.00 | 0.00 | 83 | 1018.9 |
| 20260901011601 | 79 | 0 | 0.0 | 1.0 | 0.00 | 0.00 | 0.00 | 83 | 1018.8 |
| 20260901011057 | 79 | 0 | 0.0 | 1.0 | 0.00 | 0.00 | 0.00 | 83 | 1018.8 |
| 20260901010557 | 79 | 0 | 0.0 | 1.0 | 0.00 | 0.00 | 0.00 | 82 | 1018.8 |
| 20260901010114 | 80 | 0 | 0.0 | 0.0 | 0.00 | 0.00 | 0.00 | 82 | 1018.6 |
| 20260901005556 | 80 | 0 | 0.0 | 0.0 | 0.00 | 0.00 | 0.00 | 81 | 1018.5 |
| 20260901005058 | 80 | 0 | 0.0 | 0.0 | 0.00 | 0.00 | 0.00 | 80 | 1018.4 |
| 20260901004610 | 81 | 0 | 0.0 | 0.0 | 0.00 | 0.00 | 0.00 | 80 | 1018.4 |
| 20260901004059 | 81 | 0 | 0.0 | 0.0 | 0.00 | 0.00 | 0.00 | 79 | 1018.4 |
| 20260901003557 | 81 | 0 | 0.0 | 0.0 | 0.00 | 0.00 | 0.00 | 79 | 1018.3 |
| 20260901003103 | 82 | 0 | 0.0 | 0.0 | 0.00 | 0.00 | 0.00 | 78 | 1018.5 |
| 20260901002557 | 82 | 0 | 0.0 | 0.0 | 0.00 | 0.00 | 0.00 | 77 | 1018.6 |
| 20260901002058 | 82 | 0 | 0.0 | 0.0 | 0.00 | 0.00 | 0.00 | 76 | 1018.5 |
| 20260901001605 | 82 | 0 | 0.0 | 0.0 | 0.00 | 0.00 | 0.00 | 75 | 1018.5 |
| 20260901001057 | 83 | 0 | 0.0 | 0.0 | 0.00 | 0.00 | 0.00 | 74 | 1018.4 |
| 20260901000556 | 83 | 0 | 0.0 | 0.0 | 0.00 | 0.00 | 0.00 | 74 | 1018.3 |
| 20260901000107 | 83 | 0 | 0.0 | 0.0 | 0.00 | 0.00 | 0.00 | 73 | 1018.3 |
| 20260831235557 | 83 | 0 | 0.0 | 0.0 | 0.00 | 0.00 | 0.00 | 72 | 1018.2 |
| 20260831235058 | 84 | 0 | 0.0 | 0.0 | 0.00 | 0.00 | 0.00 | 72 | 1018.2 |
| 20260831234633 | 84 | 0 | 0.0 | 0.0 | 0.00 | 0.00 | 0.00 | 70 | 1018.2 |
| 20260831234100 | 84 | 0 | 0.0 | 0.0 | 0.00 | 0.00 | 0.00 | 70 | 1018.1 |
| 20260831233558 | 85 | 0 | 0.0 | 0.0 | 0.00 | 0.00 | 0.00 | 69 | 1018.1 |
| 20260831233108 | 85 | 0 | 0.0 | 0.0 | 0.00 | 0.00 | 0.00 | 68 | 1018.2 |
| 20260831232557 | 85 | 0 | 0.0 | 0.0 | 0.00 | 0.00 | 0.00 | 68 | 1018.1 |
| 20260831232056 | 85 | 0 | 0.0 | 0.0 | 0.00 | 0.00 | 0.00 | 68 | 1018.1 |
| 20260831231609 | 85 | 0 | 0.0 | 0.0 | 0.00 | 0.00 | 0.00 | 67 | 1018.1 |
| 20260831231057 | 85 | 0 | 0.0 | 0.0 | 0.00 | 0.00 | 0.00 | 67 | 1018.0 |
| 20260831230557 | 85 | 0 | 0.0 | 0.0 | 0.00 | 0.00 | 0.00 | 66 | 1018.0 |
| 20260831230113 | 85 | 0 | 0.0 | 0.0 | 0.00 | 0.00 | 0.00 | 66 | 1018.1 |
| 20260831225557 | 85 | 0 | 0.0 | 0.0 | 0.00 | 0.00 | 0.00 | 68 | 1018.1 |
| 20260831225058 | 85 | 0 | 0.0 | 0.0 | 0.00 | 0.00 | 0.00 | 68 | 1018.0 |
| 20260831224605 | 85 | 0 | 0.0 | 0.0 | 0.00 | 0.00 | 0.00 | 68 | 1017.9 |
| 20260831224056 | 85 | 0 | 0.0 | 0.0 | 0.00 | 0.00 | 0.00 | 70 | 1018.0 |
| 20260831223558 | 84 | 0 | 0.0 | 0.0 | 0.00 | 0.00 | 0.00 | 70 | 1018.0 |
| 20260831223110 | 85 | 0 | 0.0 | 0.0 | 0.00 | 0.00 | 0.00 | 70 | 1018.0 |
| 20260831222557 | 85 | 0 | 0.0 | 0.0 | 0.00 | 0.00 | 0.00 | 71 | 1018.0 |
| 20260831222136 | 85 | 0 | 0.0 | 0.0 | 0.00 | 0.00 | 0.00 | 69 | 1017.9 |
| 20260831221605 | 84 | 0 | 0.0 | 0.0 | 0.00 | 0.00 | 0.00 | 70 | 1017.9 |
| 20260831221101 | 85 | 0 | 0.0 | 0.0 | 0.00 | 0.00 | 0.00 | 70 | 1017.9 |
| 20260831220600 | 85 | 0 | 0.0 | 1.0 | 0.00 | 0.00 | 0.00 | 70 | 1017.9 |
| 20260831220129 | 85 | 0 | 0.0 | 3.0 | 0.00 | 0.00 | 0.00 | 71 | 1017.8 |
| 20260831215601 | 85 | 0 | 0.0 | 5.0 | 0.00 | 0.00 | 0.00 | 70 | 1017.7 |
| 20260831215102 | 84 | 205 | 0.0 | 5.0 | 0.00 | 0.00 | 0.00 | 71 | 1017.5 |
| 20260831214623 | 85 | 198 | 1.0 | 5.0 | 0.00 | 0.00 | 0.00 | 71 | 1017.4 |
| 20260831214100 | 85 | 215 | 0.0 | 8.0 | 0.00 | 0.00 | 0.00 | 72 | 1017.5 |
| 20260831213600 | 85 | 0 | 1.0 | 8.0 | 0.00 | 0.00 | 0.00 | 70 | 1017.5 |
| 20260831213112 | 85 | 0 | 4.0 | 9.0 | 0.00 | 0.00 | 0.00 | 69 | 1017.5 |
| 20260831212603 | 85 | 225 | 3.0 | 9.0 | 0.00 | 0.00 | 0.00 | 70 | 1017.6 |
| 20260831212057 | 85 | 0 | 2.0 | 7.0 | 0.00 | 0.00 | 0.00 | 71 | 1017.8 |
| 20260831211607 | 85 | 207 | 2.0 | 5.0 | 0.00 | 0.00 | 0.00 | 70 | 1017.9 |
| 20260831211057 | 85 | 221 | 1.0 | 6.0 | 0.00 | 0.00 | 0.00 | 71 | 1018.1 |
| 20260831210602 | 85 | 229 | 2.0 | 6.0 | 0.00 | 0.00 | 0.00 | 70 | 1018.1 |
| 20260831210106 | 85 | 217 | 1.0 | 6.0 | 0.00 | 0.00 | 0.00 | 70 | 1018.2 |
| 20260831205557 | 85 | 244 | 1.0 | 6.0 | 0.00 | 0.00 | 0.00 | 70 | 1018.2 |
| 20260831205100 | 85 | 259 | 1.0 | 7.0 | 0.00 | 0.00 | 0.00 | 69 | 1018.3 |
| 20260831204609 | 85 | 247 | 2.0 | 7.0 | 0.00 | 0.00 | 0.00 | 69 | 1018.5 |
| 20260831204100 | 85 | 255 | 2.0 | 7.0 | 0.00 | 0.00 | 0.00 | 69 | 1018.4 |
| 20260831203603 | 85 | 274 | 2.0 | 6.0 | 0.00 | 0.00 | 0.00 | 68 | 1018.5 |
| 20260831203104 | 85 | 248 | 2.0 | 8.0 | 0.00 | 0.00 | 0.00 | 69 | 1018.4 |
| 20260831202557 | 85 | 261 | 2.0 | 8.0 | 0.00 | 0.00 | 0.00 | 69 | 1018.7 |
| 20260831202057 | 85 | 269 | 2.0 | 8.0 | 0.00 | 0.00 | 0.00 | 68 | 1018.5 |
| 20260831201623 | 85 | 244 | 3.0 | 9.0 | 0.00 | 0.00 | 0.00 | 68 | 1018.4 |
| 20260831201057 | 86 | 285 | 3.0 | 11.0 | 0.00 | 0.00 | 0.00 | 67 | 1018.4 |
| 20260831200600 | 86 | 266 | 2.0 | 11.0 | 0.00 | 0.00 | 0.00 | 67 | 1018.8 |
| 20260831200107 | 86 | 0 | 3.0 | 12.0 | 0.00 | 0.00 | 0.00 | 69 | 1018.9 |
| 20260831195600 | 86 | 263 | 4.0 | 12.0 | 0.00 | 0.00 | 0.00 | 68 | 1019.0 |
| 20260831195102 | 86 | 229 | 6.0 | 10.0 | 0.00 | 0.00 | 0.00 | 67 | 1019.0 |
| 20260831194603 | 86 | 269 | 3.0 | 8.0 | 0.00 | 0.00 | 0.00 | 68 | 1019.2 |
| 20260831194101 | 86 | 0 | 2.0 | 8.0 | 0.00 | 0.00 | 0.00 | 68 | 1019.2 |
| 20260831193600 | 86 | 277 | 3.0 | 9.0 | 0.00 | 0.00 | 0.00 | 67 | 1019.3 |
| 20260831193134 | 86 | 249 | 4.0 | 9.0 | 0.00 | 0.00 | 0.00 | 66 | 1019.4 |
| 20260831192601 | 86 | 281 | 3.0 | 9.0 | 0.00 | 0.00 | 0.00 | 66 | 1019.4 |
| 20260831192105 | 86 | 281 | 4.0 | 9.0 | 0.00 | 0.00 | 0.00 | 65 | 1019.4 |
| 20260831191607 | 87 | 282 | 3.0 | 11.0 | 0.00 | 0.00 | 0.00 | 64 | 1019.5 |
| 20260831191102 | 87 | 270 | 3.0 | 11.0 | 0.00 | 0.00 | 0.00 | 63 | 1019.5 |
| 20260831190603 | 87 | 248 | 5.0 | 11.0 | 0.00 | 0.00 | 0.00 | 62 | 1019.4 |
| 20260831190104 | 88 | 257 | 6.0 | 11.0 | 0.00 | 0.00 | 0.00 | 61 | 1019.4 |
| 20260831185602 | 89 | 266 | 3.0 | 9.0 | 0.00 | 0.00 | 0.00 | 62 | 1019.3 |
| 20260831185100 | 89 | 333 | 2.0 | 10.0 | 0.00 | 0.00 | 0.00 | 63 | 1019.3 |
| 20260831184608 | 88 | 303 | 2.0 | 10.0 | 0.00 | 0.00 | 0.00 | 65 | 1019.4 |
| 20260831184100 | 88 | 282 | 4.0 | 10.0 | 0.00 | 0.00 | 0.00 | 64 | 1019.5 |
| 20260831183559 | 88 | 299 | 4.0 | 11.0 | 0.00 | 0.00 | 0.00 | 65 | 1019.5 |
| 20260831183107 | 87 | 251 | 4.0 | 11.0 | 0.00 | 0.00 | 0.00 | 66 | 1019.6 |
| 20260831182557 | 87 | 279 | 5.0 | 11.0 | 0.00 | 0.00 | 0.00 | 65 | 1019.6 |
| 20260831182057 | 87 | 290 | 3.0 | 11.0 | 0.00 | 0.00 | 0.00 | 64 | 1019.8 |
| 20260831181614 | 87 | 259 | 6.0 | 12.0 | 0.00 | 0.00 | 0.00 | 63 | 1019.9 |
| 20260831181058 | 87 | 270 | 6.0 | 12.0 | 0.00 | 0.00 | 0.00 | 63 | 1019.9 |
| 20260831180557 | 88 | 250 | 5.0 | 14.0 | 0.00 | 0.00 | 0.00 | 62 | 1019.9 |
| 20260831180110 | 88 | 333 | 5.0 | 14.0 | 0.00 | 0.00 | 0.00 | 61 | 1019.9 |
| 20260831175601 | 89 | 271 | 7.0 | 15.0 | 0.00 | 0.00 | 0.00 | 59 | 1019.7 |
| 20260831175057 | 90 | 257 | 7.0 | 16.0 | 0.00 | 0.00 | 0.00 | 58 | 1019.7 |
| 20260831174602 | 90 | 335 | 9.0 | 16.0 | 0.00 | 0.00 | 0.00 | 61 | 1019.6 |
| 20260831174101 | 90 | 296 | 7.0 | 13.0 | 0.00 | 0.00 | 0.00 | 63 | 1019.7 |
| 20260831173601 | 89 | 269 | 6.0 | 13.0 | 0.00 | 0.00 | 0.00 | 63 | 1019.8 |
| 20260831173106 | 89 | 288 | 6.0 | 14.0 | 0.00 | 0.00 | 0.00 | 62 | 1019.9 |
| 20260831172557 | 88 | 265 | 4.0 | 17.0 | 0.00 | 0.00 | 0.00 | 63 | 1019.9 |
| 20260831172057 | 89 | 272 | 8.0 | 17.0 | 0.00 | 0.00 | 0.00 | 61 | 1020.1 |
| 20260831171607 | 90 | 242 | 7.0 | 14.0 | 0.00 | 0.00 | 0.00 | 60 | 1020.1 |
| 20260831171100 | 90 | 252 | 8.0 | 14.0 | 0.00 | 0.00 | 0.00 | 60 | 1020.1 |
| 20260831170601 | 90 | 245 | 5.0 | 12.0 | 0.00 | 0.00 | 0.00 | 62 | 1020.1 |
| 20260831170118 | 89 | 288 | 5.0 | 11.0 | 0.00 | 0.00 | 0.00 | 63 | 1020.1 |
| 20260831165558 | 89 | 288 | 5.0 | 12.0 | 0.00 | 0.00 | 0.00 | 62 | 1020.2 |
| 20260831165058 | 88 | 256 | 6.0 | 14.0 | 0.00 | 0.00 | 0.00 | 63 | 1020.2 |
| 20260831164626 | 88 | 301 | 7.0 | 14.0 | 0.00 | 0.00 | 0.00 | 61 | 1020.2 |
| 20260831164058 | 89 | 312 | 5.0 | 12.0 | 0.00 | 0.00 | 0.00 | 60 | 1020.2 |
| 20260831163558 | 89 | 269 | 6.0 | 14.0 | 0.00 | 0.00 | 0.00 | 58 | 1020.2 |
| 20260831163102 | 90 | 258 | 7.0 | 14.0 | 0.00 | 0.00 | 0.00 | 60 | 1020.3 |
| 20260831162559 | 90 | 277 | 3.0 | 13.0 | 0.00 | 0.00 | 0.00 | 60 | 1020.4 |
| 20260831162100 | 89 | 268 | 5.0 | 11.0 | 0.00 | 0.00 | 0.00 | 59 | 1020.3 |
| 20260831161612 | 89 | 246 | 6.0 | 11.0 | 0.00 | 0.00 | 0.00 | 61 | 1020.3 |